カタログに戻る

SHIYAN 27D

運用中科学SSO
NORAD 63602·PAYLOAD·🇨🇳 China

打ち上げ Apr 18, 2025 から Taiyuan Satellite Launch Center

Loading…

次のパス (今後24時間)

TLE

最新Source: Space-Track

元期: Sep 14, 2026, 13:34 UTC

1 63602U 25078D   26257.56544632 -.00000014  00000-0  42511-4 0  9999
2 63602  99.6970 263.5031 0001030  91.9976 268.1280 13.57245822 69656

AllMySatでSHIYAN 27Dをリアルタイム追跡

Download on the App Store